Time,TemperatureF,DewpointF,PressureIn,WindDirection,WindDirectionDegrees,WindSpeedMPH,WindSpeedGustMPH,Humidity,HourlyPrecipIn,Conditions,Clouds,dailyrainin,SoftwareType,DateUTC
2013-03-24 00:00:00,22.5,5.4,29.75,North,0,0.0,0.0,48,0.00,,,0.00,WUHU21623XXSP,2013-03-24 04:00:00,
2013-03-24 00:05:00,22.5,5.4,29.74,North,0,0.0,0.0,48,0.00,,,0.00,WUHU21623XXSP,2013-03-24 04:05:00,
2013-03-24 00:10:00,22.5,5.4,29.74,North,0,0.0,0.0,48,0.00,,,0.00,WUHU21623XXSP,2013-03-24 04:10:00,
2013-03-24 00:15:00,22.5,5.4,29.73,North,0,0.0,0.0,48,0.00,,,0.00,WUHU21623XXSP,2013-03-24 04:15:00,
2013-03-24 00:20:00,22.5,5.4,29.73,North,0,0.0,0.0,48,0.00,,,0.00,WUHU21623XXSP,2013-03-24 04:20:00,
2013-03-24 00:25:00,22.6,5.5,29.72,North,0,0.0,0.0,48,0.00,,,0.00,WUHU21623XXSP,2013-03-24 04:25:00,
2013-03-24 00:30:00,22.6,5.5,29.72,North,0,0.0,0.0,48,0.00,,,0.00,WUHU21623XXSP,2013-03-24 04:30:00,
2013-03-24 00:35:00,22.6,5.5,29.72,North,0,0.0,0.0,48,0.00,,,0.00,WUHU21623XXSP,2013-03-24 04:35:00,
2013-03-24 00:40:00,22.6,5.5,29.72,North,0,0.0,0.0,48,0.00,,,0.00,WUHU21623XXSP,2013-03-24 04:40:00,
2013-03-24 00:45:00,22.5,5.4,29.71,North,0,0.0,0.0,48,0.00,,,0.00,WUHU21623XXSP,2013-03-24 04:45:00,
2013-03-24 00:50:00,22.5,5.4,29.71,North,0,0.0,0.0,48,0.00,,,0.00,WUHU21623XXSP,2013-03-24 04:50:00,
2013-03-24 00:55:00,22.3,5.2,29.71,North,0,0.0,0.0,48,0.00,,,0.00,WUHU21623XXSP,2013-03-24 04:55:00,
2013-03-24 01:00:00,22.1,5.1,29.71,North,0,0.0,0.0,48,0.00,,,0.00,WUHU21623XXSP,2013-03-24 05:00:00,
2013-03-24 01:05:00,22.1,5.1,29.71,North,0,0.0,0.0,48,0.00,,,0.00,WUHU21623XXSP,2013-03-24 05:05:00,
2013-03-24 01:11:00,21.9,4.9,29.71,North,0,0.0,0.0,48,0.00,,,0.00,WUHU21623XXSP,2013-03-24 05:11:00,
2013-03-24 01:16:00,21.9,4.9,29.72,North,0,0.0,0.0,48,0.00,,,0.00,WUHU21623XXSP,2013-03-24 05:16:00,
2013-03-24 01:21:00,21.6,4.6,29.72,North,0,0.0,0.0,48,0.00,,,0.00,WUHU21623XXSP,2013-03-24 05:21:00,
2013-03-24 01:26:00,21.6,4.6,29.72,North,0,0.0,0.0,48,0.00,,,0.00,WUHU21623XXSP,2013-03-24 05:26:00,
2013-03-24 01:31:00,21.7,4.7,29.71,North,0,0.0,0.0,48,0.00,,,0.00,WUHU21623XXSP,2013-03-24 05:31:00,
2013-03-24 01:36:00,21.7,4.7,29.71,North,0,0.0,0.0,48,0.00,,,0.00,WUHU21623XXSP,2013-03-24 05:36:00,
2013-03-24 01:41:00,21.6,4.6,29.71,North,0,0.0,0.0,48,0.00,,,0.00,WUHU21623XXSP,2013-03-24 05:41:00,
2013-03-24 01:46:00,21.7,4.7,29.71,North,0,0.0,0.0,48,0.00,,,0.00,WUHU21623XXSP,2013-03-24 05:46:00,
2013-03-24 01:51:00,21.6,4.6,29.71,North,0,0.0,0.0,48,0.00,,,0.00,WUHU21623XXSP,2013-03-24 05:51:00,
2013-03-24 01:56:00,21.4,4.4,29.70,North,0,0.0,0.0,48,0.00,,,0.00,WUHU21623XXSP,2013-03-24 05:56:00,
2013-03-24 02:01:00,21.7,4.7,29.70,North,0,0.0,0.0,48,0.00,,,0.00,WUHU21623XXSP,2013-03-24 06:01:00,
2013-03-24 02:10:00,21.7,4.7,29.70,North,0,0.0,0.0,48,0.00,,,0.00,WUHU21623XXSP,2013-03-24 06:10:00,
2013-03-24 02:15:00,21.4,4.4,29.71,North,0,0.0,0.0,48,0.00,,,0.00,WUHU21623XXSP,2013-03-24 06:15:00,
2013-03-24 02:20:00,21.4,4.4,29.71,North,0,0.0,0.0,48,0.00,,,0.00,WUHU21623XXSP,2013-03-24 06:20:00,
2013-03-24 02:25:00,21.4,4.4,29.71,North,0,0.0,0.0,48,0.00,,,0.00,WUHU21623XXSP,2013-03-24 06:25:00,
2013-03-24 02:30:00,21.0,4.0,29.71,North,0,0.0,0.0,48,0.00,,,0.00,WUHU21623XXSP,2013-03-24 06:30:00,
2013-03-24 02:35:00,20.8,3.9,29.71,North,0,0.0,0.0,48,0.00,,,0.00,WUHU21623XXSP,2013-03-24 06:35:00,
2013-03-24 02:40:00,20.8,3.9,29.71,North,0,0.0,0.0,48,0.00,,,0.00,WUHU21623XXSP,2013-03-24 06:40:00,
2013-03-24 02:45:00,20.7,3.8,29.71,North,0,0.0,0.0,48,0.00,,,0.00,WUHU21623XXSP,2013-03-24 06:45:00,
2013-03-24 02:50:00,20.3,3.4,29.71,North,0,0.0,0.0,48,0.00,,,0.00,WUHU21623XXSP,2013-03-24 06:50:00,
2013-03-24 02:55:00,20.3,3.4,29.72,North,0,0.0,0.0,48,0.00,,,0.00,WUHU21623XXSP,2013-03-24 06:55:00,
2013-03-24 03:00:00,20.3,3.4,29.72,North,0,0.0,0.0,48,0.00,,,0.00,WUHU21623XXSP,2013-03-24 07:00:00,
2013-03-24 03:05:00,20.3,3.4,29.72,North,0,0.0,0.0,48,0.00,,,0.00,WUHU21623XXSP,2013-03-24 07:05:00,
2013-03-24 03:10:00,20.3,3.4,29.72,North,0,0.0,0.0,48,0.00,,,0.00,WUHU21623XXSP,2013-03-24 07:10:00,
2013-03-24 03:15:00,20.1,3.2,29.73,North,0,0.0,0.0,48,0.00,,,0.00,WUHU21623XXSP,2013-03-24 07:15:00,
2013-03-24 03:20:00,20.3,3.4,29.72,North,0,0.0,0.0,48,0.00,,,0.00,WUHU21623XXSP,2013-03-24 07:20:00,
2013-03-24 03:25:00,20.3,3.4,29.71,North,0,0.0,0.0,48,0.00,,,0.00,WUHU21623XXSP,2013-03-24 07:25:00,
2013-03-24 03:30:00,20.5,3.6,29.71,North,0,0.0,0.0,48,0.00,,,0.00,WUHU21623XXSP,2013-03-24 07:30:00,
2013-03-24 03:35:00,20.5,3.6,29.71,North,0,0.0,0.0,48,0.00,,,0.00,WUHU21623XXSP,2013-03-24 07:35:00,
2013-03-24 03:40:00,20.5,3.6,29.71,North,0,0.0,0.0,48,0.00,,,0.00,WUHU21623XXSP,2013-03-24 07:40:00,
2013-03-24 03:45:00,20.3,3.4,29.71,North,0,0.0,0.0,48,0.00,,,0.00,WUHU21623XXSP,2013-03-24 07:45:00,
2013-03-24 03:50:00,20.3,3.4,29.71,North,0,0.0,0.0,48,0.00,,,0.00,WUHU21623XXSP,2013-03-24 07:50:00,
2013-03-24 03:55:00,20.1,3.2,29.72,South,180,0.0,0.0,48,0.00,,,0.00,WUHU21623XXSP,2013-03-24 07:55:00,
2013-03-24 04:00:00,19.9,3.0,29.72,North,0,0.0,0.0,48,0.00,,,0.00,WUHU21623XXSP,2013-03-24 08:00:00,
2013-03-24 04:05:00,19.8,2.9,29.71,North,0,0.0,0.0,48,0.00,,,0.00,WUHU21623XXSP,2013-03-24 08:05:00,
2013-03-24 04:11:00,19.9,3.0,29.71,South,180,0.0,0.0,48,0.00,,,0.00,WUHU21623XXSP,2013-03-24 08:11:00,
2013-03-24 04:16:00,20.1,3.2,29.71,North,0,0.0,0.0,48,0.00,,,0.00,WUHU21623XXSP,2013-03-24 08:16:00,
2013-03-24 04:21:00,20.3,3.4,29.71,North,0,0.0,0.0,48,0.00,,,0.00,WUHU21623XXSP,2013-03-24 08:21:00,
2013-03-24 04:26:00,20.3,3.4,29.71,North,0,0.0,0.0,48,0.00,,,0.00,WUHU21623XXSP,2013-03-24 08:26:00,
2013-03-24 04:31:00,20.3,3.4,29.71,North,0,0.0,0.0,48,0.00,,,0.00,WUHU21623XXSP,2013-03-24 08:31:00,
2013-03-24 04:36:00,20.3,3.4,29.71,North,0,0.0,0.0,48,0.00,,,0.00,WUHU21623XXSP,2013-03-24 08:36:00,
2013-03-24 04:41:00,20.3,3.4,29.71,North,0,0.0,0.0,48,0.00,,,0.00,WUHU21623XXSP,2013-03-24 08:41:00,
2013-03-24 04:46:00,20.5,3.6,29.71,North,0,0.0,0.0,48,0.00,,,0.00,WUHU21623XXSP,2013-03-24 08:46:00,
2013-03-24 04:51:00,20.3,3.4,29.71,North,0,0.0,0.0,48,0.00,,,0.00,WUHU21623XXSP,2013-03-24 08:51:00,
2013-03-24 04:56:00,20.3,3.4,29.72,North,0,0.0,0.0,48,0.00,,,0.00,WUHU21623XXSP,2013-03-24 08:56:00,
2013-03-24 05:01:00,20.1,3.2,29.71,North,0,0.0,0.0,48,0.00,,,0.00,WUHU21623XXSP,2013-03-24 09:01:00,
2013-03-24 05:06:00,20.1,3.2,29.71,North,0,0.0,0.0,48,0.00,,,0.00,WUHU21623XXSP,2013-03-24 09:06:00,
2013-03-24 05:11:00,20.3,3.4,29.71,North,0,0.0,0.0,48,0.00,,,0.00,WUHU21623XXSP,2013-03-24 09:11:00,
2013-03-24 05:16:00,20.3,3.4,29.71,South,180,0.0,0.0,48,0.00,,,0.00,WUHU21623XXSP,2013-03-24 09:16:00,
2013-03-24 05:21:00,20.5,3.6,29.70,North,0,0.0,0.0,48,0.00,,,0.00,WUHU21623XXSP,2013-03-24 09:21:00,
2013-03-24 05:26:00,20.8,3.9,29.70,North,0,0.0,0.0,48,0.00,,,0.00,WUHU21623XXSP,2013-03-24 09:26:00,
2013-03-24 05:31:00,20.8,3.9,29.70,North,0,0.0,0.0,48,0.00,,,0.00,WUHU21623XXSP,2013-03-24 09:31:00,
2013-03-24 05:37:00,21.0,4.0,29.69,North,0,0.0,0.0,48,0.00,,,0.00,WUHU21623XXSP,2013-03-24 09:37:00,
2013-03-24 05:42:00,21.2,4.2,29.69,South,180,0.0,0.0,48,0.00,,,0.00,WUHU21623XXSP,2013-03-24 09:42:00,
2013-03-24 05:47:00,21.2,4.2,29.69,North,0,0.0,0.0,48,0.00,,,0.00,WUHU21623XXSP,2013-03-24 09:47:00,
2013-03-24 05:52:00,21.4,4.4,29.69,South,180,0.0,0.0,48,0.00,,,0.00,WUHU21623XXSP,2013-03-24 09:52:00,
2013-03-24 05:57:00,21.4,4.4,29.69,North,0,0.0,0.0,48,0.00,,,0.00,WUHU21623XXSP,2013-03-24 09:57:00,
2013-03-24 06:02:00,21.4,4.4,29.69,North,0,0.0,0.0,48,0.00,,,0.00,WUHU21623XXSP,2013-03-24 10:02:00,
2013-03-24 06:07:00,21.4,4.4,29.70,North,0,0.0,0.0,48,0.00,,,0.00,WUHU21623XXSP,2013-03-24 10:07:00,
2013-03-24 06:12:00,21.4,4.4,29.70,North,0,0.0,0.0,48,0.00,,,0.00,WUHU21623XXSP,2013-03-24 10:12:00,
2013-03-24 06:17:00,21.4,4.4,29.70,North,0,0.0,0.0,48,0.00,,,0.00,WUHU21623XXSP,2013-03-24 10:17:00,
2013-03-24 06:22:00,21.4,4.4,29.70,North,0,0.0,0.0,48,0.00,,,0.00,WUHU21623XXSP,2013-03-24 10:22:00,
2013-03-24 06:27:00,21.4,4.4,29.69,North,0,0.0,0.0,48,0.00,,,0.00,WUHU21623XXSP,2013-03-24 10:27:00,
2013-03-24 06:32:00,21.4,4.4,29.70,South,180,0.0,0.0,48,0.00,,,0.00,WUHU21623XXSP,2013-03-24 10:32:00,
2013-03-24 06:37:00,21.4,4.4,29.69,South,180,0.0,0.0,48,0.00,,,0.00,WUHU21623XXSP,2013-03-24 10:37:00,
2013-03-24 06:42:00,21.2,4.2,29.69,North,0,0.0,0.0,48,0.00,,,0.00,WUHU21623XXSP,2013-03-24 10:42:00,
2013-03-24 06:47:00,21.2,4.2,29.70,North,0,0.0,0.0,48,0.00,,,0.00,WUHU21623XXSP,2013-03-24 10:47:00,
2013-03-24 06:52:00,21.4,4.4,29.70,North,0,0.0,0.0,48,0.00,,,0.00,WUHU21623XXSP,2013-03-24 10:52:00,
2013-03-24 06:57:00,21.2,4.2,29.70,North,0,0.0,0.0,48,0.00,,,0.00,WUHU21623XXSP,2013-03-24 10:57:00,
2013-03-24 07:02:00,21.4,4.4,29.70,North,0,0.0,0.0,48,0.00,,,0.00,WUHU21623XXSP,2013-03-24 11:02:00,
2013-03-24 07:07:00,21.4,4.4,29.70,North,0,0.0,0.0,48,0.00,,,0.00,WUHU21623XXSP,2013-03-24 11:07:00,
2013-03-24 07:12:00,21.4,4.4,29.70,North,0,0.0,0.0,48,0.00,,,0.00,WUHU21623XXSP,2013-03-24 11:12:00,
2013-03-24 07:17:00,21.4,4.4,29.70,North,0,0.0,0.0,48,0.00,,,0.00,WUHU21623XXSP,2013-03-24 11:17:00,
2013-03-24 07:22:00,21.4,4.4,29.70,North,0,0.0,0.0,48,0.00,,,0.00,WUHU21623XXSP,2013-03-24 11:22:00,
2013-03-24 07:27:00,21.6,4.6,29.69,North,0,0.0,0.0,48,0.00,,,0.00,WUHU21623XXSP,2013-03-24 11:27:00,
2013-03-24 07:32:00,21.6,4.6,29.70,North,0,0.0,0.0,48,0.00,,,0.00,WUHU21623XXSP,2013-03-24 11:32:00,
2013-03-24 07:37:00,21.7,4.7,29.69,North,0,0.0,0.0,48,0.00,,,0.00,WUHU21623XXSP,2013-03-24 11:37:00,
2013-03-24 07:42:00,21.7,4.7,29.69,North,0,0.0,0.0,48,0.00,,,0.00,WUHU21623XXSP,2013-03-24 11:42:00,
2013-03-24 07:48:00,22.1,5.1,29.69,North,0,0.0,0.0,48,0.00,,,0.00,WUHU21623XXSP,2013-03-24 11:48:00,
2013-03-24 07:53:00,22.1,5.1,29.69,North,0,0.0,0.0,48,0.00,,,0.00,WUHU21623XXSP,2013-03-24 11:53:00,
2013-03-24 07:58:00,22.5,5.4,29.68,North,0,0.0,0.0,48,0.00,,,0.00,WUHU21623XXSP,2013-03-24 11:58:00,
2013-03-24 08:03:00,22.8,5.7,29.68,North,0,0.0,0.0,48,0.00,,,0.00,WUHU21623XXSP,2013-03-24 12:03:00,
2013-03-24 08:08:00,23.2,6.1,29.68,North,0,0.0,0.0,48,0.00,,,0.00,WUHU21623XXSP,2013-03-24 12:08:00,
2013-03-24 08:13:00,23.5,6.3,29.68,North,0,0.0,0.0,48,0.00,,,0.00,WUHU21623XXSP,2013-03-24 12:13:00,
2013-03-24 08:18:00,23.9,6.7,29.68,NNW,337,0.0,0.0,48,0.00,,,0.00,WUHU21623XXSP,2013-03-24 12:18:00,
2013-03-24 08:23:00,24.1,6.9,29.68,North,0,0.0,0.0,48,0.00,,,0.00,WUHU21623XXSP,2013-03-24 12:23:00,
2013-03-24 08:28:00,24.4,7.2,29.68,North,0,0.0,0.0,48,0.00,,,0.00,WUHU21623XXSP,2013-03-24 12:28:00,
2013-03-24 08:33:00,24.6,7.4,29.68,North,0,0.0,0.0,48,0.00,,,0.00,WUHU21623XXSP,2013-03-24 12:33:00,
2013-03-24 08:38:00,25.2,7.9,29.68,ENE,67,0.0,0.4,48,0.00,,,0.00,WUHU21623XXSP,2013-03-24 12:38:00,
2013-03-24 08:43:00,25.3,8.0,29.68,NNE,22,0.0,0.4,48,0.00,,,0.00,WUHU21623XXSP,2013-03-24 12:43:00,
2013-03-24 08:48:00,25.7,8.4,29.67,NNE,22,0.0,0.0,48,0.00,,,0.00,WUHU21623XXSP,2013-03-24 12:48:00,
2013-03-24 08:53:00,25.9,8.6,29.67,NE,45,0.0,0.0,48,0.00,,,0.00,WUHU21623XXSP,2013-03-24 12:53:00,
2013-03-24 08:58:00,26.2,8.8,29.66,NNW,337,0.0,0.0,48,0.00,,,0.00,WUHU21623XXSP,2013-03-24 12:58:00,
2013-03-24 09:03:00,26.6,9.2,29.66,NNW,337,0.0,0.0,48,0.00,,,0.00,WUHU21623XXSP,2013-03-24 13:03:00,
2013-03-24 09:08:00,26.8,9.4,29.66,North,0,0.0,0.0,48,0.00,,,0.00,WUHU21623XXSP,2013-03-24 13:08:00,
2013-03-24 09:13:00,27.1,9.7,29.66,ESE,112,0.0,0.0,48,0.00,,,0.00,WUHU21623XXSP,2013-03-24 13:13:00,
2013-03-24 09:18:00,27.3,9.8,29.66,NNE,22,0.0,1.3,48,0.00,,,0.00,WUHU21623XXSP,2013-03-24 13:18:00,
2013-03-24 09:23:00,27.9,10.4,29.66,NNE,22,0.0,1.3,48,0.00,,,0.00,WUHU21623XXSP,2013-03-24 13:23:00,
2013-03-24 09:28:00,28.0,10.5,29.66,NNE,22,0.0,1.3,48,0.00,,,0.00,WUHU21623XXSP,2013-03-24 13:28:00,
2013-03-24 09:33:00,28.4,10.9,29.66,NNE,22,0.0,0.0,48,0.00,,,0.00,WUHU21623XXSP,2013-03-24 13:33:00,
2013-03-24 09:38:00,28.8,11.2,29.66,NE,45,0.0,0.0,48,0.00,,,0.00,WUHU21623XXSP,2013-03-24 13:38:00,
2013-03-24 09:43:00,28.9,11.3,29.66,ESE,112,0.0,0.0,48,0.00,,,0.00,WUHU21623XXSP,2013-03-24 13:43:00,
2013-03-24 09:48:00,29.3,11.7,29.66,SSE,157,0.0,0.0,48,0.00,,,0.00,WUHU21623XXSP,2013-03-24 13:48:00,
2013-03-24 09:53:00,29.7,12.1,29.66,NNE,22,0.0,0.0,48,0.00,,,0.00,WUHU21623XXSP,2013-03-24 13:53:00,
2013-03-24 09:58:00,29.8,12.2,29.66,NNE,22,0.0,0.0,48,0.00,,,0.00,WUHU21623XXSP,2013-03-24 13:58:00,
2013-03-24 10:03:00,30.4,12.7,29.66,NNE,22,0.0,0.0,48,0.00,,,0.00,WUHU21623XXSP,2013-03-24 14:03:00,
2013-03-24 10:08:00,30.7,13.0,29.66,NNE,22,0.0,0.0,48,0.00,,,0.00,WUHU21623XXSP,2013-03-24 14:08:00,
2013-03-24 10:13:00,30.9,13.2,29.65,NNE,22,4.9,4.9,48,0.00,,,0.00,WUHU21623XXSP,2013-03-24 14:13:00,
2013-03-24 10:18:00,31.1,13.3,29.64,NNE,22,0.0,28.4,48,0.00,,,0.00,WUHU21623XXSP,2013-03-24 14:18:00,
2013-03-24 10:23:00,31.5,13.7,29.64,NNW,337,0.0,28.4,48,0.00,,,0.00,WUHU21623XXSP,2013-03-24 14:23:00,
2013-03-24 10:28:00,31.5,13.7,29.64,SE,135,2.9,2.9,48,0.00,,,0.00,WUHU21623XXSP,2013-03-24 14:28:00,
2013-03-24 10:34:00,31.8,14.0,29.63,South,180,1.9,2.9,48,0.00,,,0.00,WUHU21623XXSP,2013-03-24 14:34:00,
2013-03-24 10:38:00,32.2,14.4,29.63,SSE,166,2.1,3.1,48,0.00,,,0.00,WUHU21623XXSP,2013-03-24 14:38:00,
2013-03-24 10:43:00,32.2,14.4,29.62,South,180,28.4,28.4,48,0.00,,,0.00,WUHU21623XXSP,2013-03-24 14:43:00,
2013-03-24 10:48:00,32.0,14.2,29.62,South,176,14.7,28.4,48,0.00,,,0.00,WUHU21623XXSP,2013-03-24 14:48:00,
2013-03-24 10:54:00,32.2,14.4,29.62,ENE,67,0.0,28.4,48,0.00,,,0.00,WUHU21623XXSP,2013-03-24 14:54:00,
2013-03-24 10:59:00,32.2,14.4,29.63,NE,45,0.0,5.4,48,0.00,,,0.00,WUHU21623XXSP,2013-03-24 14:59:00,
2013-03-24 11:04:00,32.4,14.5,29.62,NNE,22,3.8,57.0,48,0.00,,,0.00,WUHU21623XXSP,2013-03-24 15:04:00,
2013-03-24 11:09:00,32.2,14.4,29.61,NNE,22,0.4,57.0,48,0.00,,,0.00,WUHU21623XXSP,2013-03-24 15:09:00,
2013-03-24 11:14:00,32.2,14.4,29.61,West,270,3.6,57.0,48,0.00,,,0.00,WUHU21623XXSP,2013-03-24 15:14:00,
2013-03-24 11:19:00,32.2,14.4,29.60,North,0,57.0,57.0,48,0.00,,,0.00,WUHU21623XXSP,2013-03-24 15:19:00,
2013-03-24 11:24:00,32.4,14.5,29.60,North,0,0.0,57.0,48,0.00,,,0.00,WUHU21623XXSP,2013-03-24 15:24:00,
2013-03-24 11:29:00,32.7,14.8,29.60,North,1,38.6,57.0,48,0.00,,,0.00,WUHU21623XXSP,2013-03-24 15:29:00,
2013-03-24 11:34:00,32.7,14.8,29.60,North,6,17.1,57.0,48,0.00,,,0.00,WUHU21623XXSP,2013-03-24 15:34:00,
2013-03-24 11:39:00,32.9,15.0,29.60,North,0,57.0,57.0,48,0.00,,,0.00,WUHU21623XXSP,2013-03-24 15:39:00,
2013-03-24 11:44:00,32.9,15.0,29.61,North,359,21.2,57.0,48,0.00,,,0.00,WUHU21623XXSP,2013-03-24 15:44:00,
2013-03-24 11:49:00,33.3,15.4,29.60,NNE,22,0.0,57.0,48,0.00,,,0.00,WUHU21623XXSP,2013-03-24 15:49:00,
2013-03-24 11:54:00,33.3,15.4,29.60,North,0,29.0,57.0,48,0.00,,,0.00,WUHU21623XXSP,2013-03-24 15:54:00,
2013-03-24 11:59:00,33.6,15.7,29.59,North,0,0.0,57.0,48,0.00,,,0.00,WUHU21623XXSP,2013-03-24 15:59:00,
2013-03-24 12:04:00,33.6,15.7,29.59,North,0,57.0,57.0,48,0.00,,,0.00,WUHU21623XXSP,2013-03-24 16:04:00,
2013-03-24 12:09:00,33.6,15.7,29.59,NNE,22,0.0,57.0,48,0.00,,,0.00,WUHU21623XXSP,2013-03-24 16:09:00,
2013-03-24 12:14:00,34.2,16.2,29.58,North,358,18.1,57.0,48,0.00,,,0.00,WUHU21623XXSP,2013-03-24 16:14:00,
2013-03-24 12:19:00,34.2,16.2,29.58,NE,36,2.8,57.0,48,0.00,,,0.00,WUHU21623XXSP,2013-03-24 16:19:00,
2013-03-24 12:24:00,34.3,16.3,29.58,North,0,57.0,57.0,48,0.00,,,0.00,WUHU21623XXSP,2013-03-24 16:24:00,
2013-03-24 12:29:00,34.9,16.8,29.57,North,1,29.8,57.0,48,0.00,,,0.00,WUHU21623XXSP,2013-03-24 16:29:00,
2013-03-24 12:34:00,35.2,17.1,29.56,North,2,15.7,57.0,48,0.00,,,0.00,WUHU21623XXSP,2013-03-24 16:34:00,
2013-03-24 12:39:00,35.6,17.5,29.56,WNW,298,2.0,57.0,48,0.00,,,0.00,WUHU21623XXSP,2013-03-24 16:39:00,
2013-03-24 12:44:00,35.6,17.5,29.56,NW,315,2.5,3.6,48,0.00,,,0.00,WUHU21623XXSP,2013-03-24 16:44:00,
2013-03-24 12:49:00,36.1,18.0,29.55,North,7,3.6,6.7,48,0.00,,,0.00,WUHU21623XXSP,2013-03-24 16:49:00,
2013-03-24 12:54:00,36.1,18.0,29.55,North,359,19.8,57.0,48,0.00,,,0.00,WUHU21623XXSP,2013-03-24 16:54:00,
2013-03-24 12:59:00,36.5,18.3,29.55,North,2,6.1,57.0,48,0.00,,,0.00,WUHU21623XXSP,2013-03-24 16:59:00,
2013-03-24 13:04:00,37.6,19.3,29.54,North,0,2.3,8.3,48,0.00,,,0.00,WUHU21623XXSP,2013-03-24 17:04:00,
2013-03-24 13:09:00,38.1,19.8,29.54,NE,48,0.8,4.9,48,0.00,,,0.00,WUHU21623XXSP,2013-03-24 17:09:00,
2013-03-24 13:14:00,38.7,20.3,29.54,North,0,1.3,14.1,48,0.00,,,0.00,WUHU21623XXSP,2013-03-24 17:14:00,
2013-03-24 13:19:00,37.9,19.6,29.53,NE,46,2.8,14.1,48,0.00,,,0.00,WUHU21623XXSP,2013-03-24 17:19:00,
2013-03-24 13:25:00,38.7,20.3,29.52,NE,45,8.7,14.1,48,0.00,,,0.00,WUHU21623XXSP,2013-03-24 17:25:00,
2013-03-24 13:32:00,38.7,20.3,29.51,North,0,0.0,8.7,48,0.00,,,0.00,WUHU21623XXSP,2013-03-24 17:32:00,
2013-03-24 13:37:00,37.8,19.5,29.51,NE,45,4.5,6.3,48,0.00,,,0.00,WUHU21623XXSP,2013-03-24 17:37:00,
2013-03-24 13:42:00,37.6,19.3,29.50,NE,52,3.5,7.6,48,0.00,,,0.00,WUHU21623XXSP,2013-03-24 17:42:00,
2013-03-24 13:47:00,37.6,19.3,29.50,North,0,3.4,7.6,48,0.00,,,0.00,WUHU21623XXSP,2013-03-24 17:47:00,
2013-03-24 13:52:00,37.4,19.2,29.50,North,1,29.5,57.0,48,0.00,,,0.00,WUHU21623XXSP,2013-03-24 17:52:00,
2013-03-24 13:57:00,37.2,19.0,29.50,NNE,22,6.9,57.0,48,0.00,,,0.00,WUHU21623XXSP,2013-03-24 17:57:00,
2013-03-24 14:02:00,37.0,18.8,29.49,NNE,16,3.9,57.0,48,0.00,,,0.00,WUHU21623XXSP,2013-03-24 18:02:00,
2013-03-24 14:07:00,37.2,19.0,29.49,NNE,32,4.2,57.0,48,0.00,,,0.00,WUHU21623XXSP,2013-03-24 18:07:00,
2013-03-24 14:13:00,37.6,19.3,29.48,NNW,337,5.4,5.8,48,0.00,,,0.00,WUHU21623XXSP,2013-03-24 18:13:00,
2013-03-24 14:18:00,37.6,19.3,29.48,NNE,29,4.5,8.5,48,0.00,,,0.00,WUHU21623XXSP,2013-03-24 18:18:00,
2013-03-24 14:23:00,37.6,19.3,29.47,NNE,22,3.4,9.2,48,0.00,,,0.00,WUHU21623XXSP,2013-03-24 18:23:00,
2013-03-24 14:28:00,37.6,19.3,29.47,North,8,11.8,57.0,48,0.00,,,0.00,WUHU21623XXSP,2013-03-24 18:28:00,
2013-03-24 14:33:00,37.6,19.3,29.47,NW,315,7.4,57.0,48,0.00,,,0.00,WUHU21623XXSP,2013-03-24 18:33:00,
2013-03-24 14:38:00,37.6,19.3,29.46,North,357,4.8,57.0,48,0.00,,,0.00,WUHU21623XXSP,2013-03-24 18:38:00,
2013-03-24 14:43:00,37.2,19.0,29.46,NE,51,4.2,57.0,48,0.00,,,0.00,WUHU21623XXSP,2013-03-24 18:43:00,
2013-03-24 14:48:00,37.0,18.8,29.47,ENE,74,2.6,57.0,48,0.00,,,0.00,WUHU21623XXSP,2013-03-24 18:48:00,
2013-03-24 14:53:00,36.7,18.5,29.46,ENE,63,2.5,57.0,48,0.00,,,0.00,WUHU21623XXSP,2013-03-24 18:53:00,
2013-03-24 14:58:00,36.5,18.3,29.46,NNE,22,6.0,57.0,48,0.00,,,0.00,WUHU21623XXSP,2013-03-24 18:58:00,
2013-03-24 15:03:00,36.3,18.1,29.45,North,0,57.0,57.0,48,0.00,,,0.00,WUHU21623XXSP,2013-03-24 19:03:00,
2013-03-24 15:08:00,36.5,18.3,29.45,NNE,14,4.2,57.0,48,0.00,,,0.00,WUHU21623XXSP,2013-03-24 19:08:00,
2013-03-24 15:13:00,36.7,18.5,29.45,NE,45,5.0,57.0,48,0.00,,,0.00,WUHU21623XXSP,2013-03-24 19:13:00,
2013-03-24 15:15:00,36.9,18.7,29.44,NNE,33,2.5,9.2,48,0.00,,,0.00,WUHU21623XXSP,2013-03-24 19:15:00,
2013-03-24 15:36:00,37.8,19.5,29.44,North,0,5.1,5.1,48,0.00,,,0.00,WUHU21623XXSP,2013-03-24 19:36:00,
2013-03-24 16:08:00,38.1,19.8,29.43,North,0,0.0,0.0,48,0.00,,,0.00,WUHU21623XXSP,2013-03-24 20:08:00,
2013-03-24 16:13:00,37.9,19.6,29.42,NNW,330,2.5,57.0,48,0.02,,,0.02,WUHU21623XXSP,2013-03-24 20:13:00,
2013-03-24 16:18:00,37.9,19.6,29.42,North,9,13.8,57.0,48,0.02,,,0.02,WUHU21623XXSP,2013-03-24 20:18:00,
2013-03-24 16:23:00,37.8,19.5,29.42,WNW,294,5.3,57.0,48,0.02,,,0.02,WUHU21623XXSP,2013-03-24 20:23:00,
2013-03-24 16:28:00,37.6,19.3,29.42,North,356,4.0,57.0,48,0.02,,,0.02,WUHU21623XXSP,2013-03-24 20:28:00,
2013-03-24 16:33:00,37.2,19.0,29.42,ENE,67,4.5,57.0,48,0.02,,,0.02,WUHU21623XXSP,2013-03-24 20:33:00,
2013-03-24 16:38:00,37.2,19.0,29.42,NE,45,4.5,57.0,48,0.00,,,0.02,WUHU21623XXSP,2013-03-24 20:38:00,
2013-03-24 16:43:00,36.9,18.7,29.43,NE,44,3.4,57.0,48,0.00,,,0.02,WUHU21623XXSP,2013-03-24 20:43:00,
2013-03-24 16:48:00,36.9,18.7,29.42,North,11,3.7,57.0,48,0.00,,,0.02,WUHU21623XXSP,2013-03-24 20:48:00,
2013-03-24 16:53:00,36.7,18.5,29.42,NE,35,5.2,57.0,48,0.00,,,0.02,WUHU21623XXSP,2013-03-24 20:53:00,
2013-03-24 16:58:00,36.3,18.1,29.41,NNE,22,3.8,8.1,48,0.00,,,0.02,WUHU21623XXSP,2013-03-24 20:58:00,
2013-03-24 17:03:00,36.1,18.0,29.41,ENE,70,1.0,9.6,48,0.00,,,0.02,WUHU21623XXSP,2013-03-24 21:03:00,
2013-03-24 17:08:00,36.0,17.9,29.41,NNE,22,2.9,11.4,48,0.00,,,0.02,WUHU21623XXSP,2013-03-24 21:08:00,
2013-03-24 17:13:00,35.8,17.7,29.41,NNE,28,2.5,11.4,48,0.00,,,0.02,WUHU21623XXSP,2013-03-24 21:13:00,
2013-03-24 17:19:00,35.4,17.3,29.41,NNE,24,4.4,8.3,48,0.00,,,0.02,WUHU21623XXSP,2013-03-24 21:19:00,
2013-03-24 17:24:00,34.9,16.8,29.40,NNW,339,5.0,9.8,48,0.00,,,0.02,WUHU21623XXSP,2013-03-24 21:24:00,
2013-03-24 17:29:00,34.7,16.7,29.40,North,0,3.6,57.0,48,0.00,,,0.02,WUHU21623XXSP,2013-03-24 21:29:00,
2013-03-24 17:34:00,34.5,16.5,29.40,North,5,5.6,57.0,48,0.00,,,0.02,WUHU21623XXSP,2013-03-24 21:34:00,
2013-03-24 17:39:00,34.2,16.2,29.39,NE,48,3.7,8.5,48,0.00,,,0.02,WUHU21623XXSP,2013-03-24 21:39:00,
2013-03-24 17:44:00,34.2,16.2,29.39,NNW,345,3.9,7.4,48,0.00,,,0.02,WUHU21623XXSP,2013-03-24 21:44:00,
2013-03-24 17:49:00,34.0,16.0,29.39,NNE,18,4.2,12.1,48,0.00,,,0.02,WUHU21623XXSP,2013-03-24 21:49:00,
2013-03-24 17:54:00,34.0,16.0,29.39,ENE,67,2.5,12.1,48,0.00,,,0.02,WUHU21623XXSP,2013-03-24 21:54:00,
2013-03-24 17:59:00,33.4,15.5,29.39,South,180,10.1,57.0,48,0.00,,,0.02,WUHU21623XXSP,2013-03-24 21:59:00,
2013-03-24 18:04:00,33.4,15.5,29.39,NNE,32,5.7,57.0,48,0.00,,,0.02,WUHU21623XXSP,2013-03-24 22:04:00,
2013-03-24 18:09:00,33.4,15.5,29.39,NW,315,8.9,57.0,48,0.00,,,0.02,WUHU21623XXSP,2013-03-24 22:09:00,
2013-03-24 18:14:00,33.3,15.4,29.39,North,0,2.0,57.0,48,0.00,,,0.02,WUHU21623XXSP,2013-03-24 22:14:00,
2013-03-24 18:19:00,33.3,15.4,29.39,NNW,332,2.9,57.0,48,0.00,,,0.02,WUHU21623XXSP,2013-03-24 22:19:00,
2013-03-24 18:24:00,33.1,15.2,29.39,NNW,337,3.8,8.3,48,0.00,,,0.02,WUHU21623XXSP,2013-03-24 22:24:00,
2013-03-24 18:29:00,32.9,15.0,29.39,North,5,3.9,8.3,48,0.00,,,0.02,WUHU21623XXSP,2013-03-24 22:29:00,
2013-03-24 18:34:00,32.9,15.0,29.38,North,0,4.7,11.0,48,0.00,,,0.02,WUHU21623XXSP,2013-03-24 22:34:00,
2013-03-24 18:39:00,32.7,14.8,29.39,NNE,25,3.3,57.0,48,0.00,,,0.02,WUHU21623XXSP,2013-03-24 22:39:00,
2013-03-24 18:44:00,32.7,14.8,29.39,NNW,347,2.5,57.0,48,0.00,,,0.02,WUHU21623XXSP,2013-03-24 22:44:00,
2013-03-24 18:49:00,32.7,14.8,29.38,North,5,3.9,57.0,48,0.00,,,0.02,WUHU21623XXSP,2013-03-24 22:49:00,
2013-03-24 18:54:00,32.5,14.6,29.38,NNE,22,4.7,57.0,48,0.00,,,0.02,WUHU21623XXSP,2013-03-24 22:54:00,
2013-03-24 18:59:00,32.4,14.5,29.37,WSW,247,4.0,57.0,48,0.00,,,0.02,WUHU21623XXSP,2013-03-24 22:59:00,
2013-03-24 19:04:00,32.4,14.5,29.37,NNE,22,6.0,6.9,48,0.00,,,0.02,WUHU21623XXSP,2013-03-24 23:04:00,
2013-03-24 19:09:00,32.2,14.4,29.37,NNW,337,9.8,9.8,48,0.00,,,0.02,WUHU21623XXSP,2013-03-24 23:09:00,
2013-03-24 19:14:00,31.6,13.8,29.38,NNE,18,3.0,10.7,48,0.00,,,0.02,WUHU21623XXSP,2013-03-24 23:14:00,
2013-03-24 19:20:00,31.5,13.7,29.37,North,354,3.4,10.7,48,0.00,,,0.02,WUHU21623XXSP,2013-03-24 23:20:00,
2013-03-24 19:25:00,31.3,13.5,29.37,NNE,17,5.5,57.0,48,0.00,,,0.02,WUHU21623XXSP,2013-03-24 23:25:00,
2013-03-24 19:30:00,31.1,13.3,29.38,NNE,26,2.4,57.0,48,0.00,,,0.02,WUHU21623XXSP,2013-03-24 23:30:00,
2013-03-24 19:35:00,30.9,13.2,29.37,North,0,57.0,57.0,48,0.00,,,0.02,WUHU21623XXSP,2013-03-24 23:35:00,
2013-03-24 19:40:00,30.9,13.2,29.37,North,359,17.4,57.0,48,0.00,,,0.02,WUHU21623XXSP,2013-03-24 23:40:00,
2013-03-24 19:45:00,30.7,13.0,29.37,North,353,2.2,57.0,48,0.00,,,0.02,WUHU21623XXSP,2013-03-24 23:45:00,
2013-03-24 19:50:00,30.6,12.9,29.37,NNE,22,0.2,11.2,48,0.00,,,0.02,WUHU21623XXSP,2013-03-24 23:50:00,
2013-03-24 19:55:00,30.6,12.9,29.37,NNW,348,2.5,57.0,48,0.00,,,0.02,WUHU21623XXSP,2013-03-24 23:55:00,
2013-03-24 20:00:00,30.4,12.7,29.37,NNW,333,3.9,57.0,48,0.00,,,0.02,WUHU21623XXSP,2013-03-25 00:00:00,
2013-03-24 20:05:00,30.4,12.7,29.36,NE,36,3.5,57.0,48,0.00,,,0.02,WUHU21623XXSP,2013-03-25 00:05:00,
2013-03-24 20:10:00,30.2,12.5,29.37,North,5,21.1,57.0,48,0.00,,,0.02,WUHU21623XXSP,2013-03-25 00:10:00,
2013-03-24 20:15:00,30.2,12.5,29.37,North,10,4.3,57.0,48,0.00,,,0.02,WUHU21623XXSP,2013-03-25 00:15:00,
2013-03-24 20:20:00,30.0,12.3,29.37,NE,45,0.0,57.0,48,0.00,,,0.02,WUHU21623XXSP,2013-03-25 00:20:00,
2013-03-24 20:25:00,30.0,12.3,29.37,NE,44,3.4,14.1,48,0.00,,,0.02,WUHU21623XXSP,2013-03-25 00:25:00,
2013-03-24 20:30:00,30.2,12.5,29.36,North,358,22.7,57.0,48,0.00,,,0.02,WUHU21623XXSP,2013-03-25 00:30:00,
2013-03-24 20:35:00,30.0,12.3,29.37,North,0,13.9,57.0,48,0.00,,,0.02,WUHU21623XXSP,2013-03-25 00:35:00,
2013-03-24 20:40:00,30.0,12.3,29.37,NE,44,1.9,57.0,48,0.00,,,0.02,WUHU21623XXSP,2013-03-25 00:40:00,
2013-03-24 20:45:00,29.8,12.2,29.37,North,4,2.7,57.0,48,0.00,,,0.02,WUHU21623XXSP,2013-03-25 00:45:00,
2013-03-24 20:50:00,29.8,12.2,29.37,North,349,3.1,6.9,48,0.00,,,0.02,WUHU21623XXSP,2013-03-25 00:50:00,
2013-03-24 20:55:00,29.8,12.2,29.36,North,4,6.3,14.1,48,0.00,,,0.02,WUHU21623XXSP,2013-03-25 00:55:00,
2013-03-24 21:00:00,29.8,12.2,29.36,NNW,337,2.5,14.1,48,0.00,,,0.02,WUHU21623XXSP,2013-03-25 01:00:00,
2013-03-24 21:05:00,29.8,12.2,29.36,North,350,2.3,6.9,48,0.00,,,0.02,WUHU21623XXSP,2013-03-25 01:05:00,
2013-03-24 21:10:00,29.8,12.2,29.36,NNE,22,5.8,57.0,48,0.00,,,0.02,WUHU21623XXSP,2013-03-25 01:10:00,
2013-03-24 21:15:00,29.8,12.2,29.36,NNW,337,6.7,57.0,48,0.00,,,0.02,WUHU21623XXSP,2013-03-25 01:15:00,
2013-03-24 21:20:00,29.7,12.1,29.36,NE,45,3.1,57.0,48,0.00,,,0.02,WUHU21623XXSP,2013-03-25 01:20:00,
2013-03-24 21:25:00,29.8,12.2,29.36,North,0,38.4,57.0,48,0.00,,,0.02,WUHU21623XXSP,2013-03-25 01:25:00,
2013-03-24 21:30:00,29.7,12.1,29.36,North,1,43.4,57.0,48,0.00,,,0.02,WUHU21623XXSP,2013-03-25 01:30:00,
2013-03-24 21:35:00,29.7,12.1,29.36,NNW,345,6.8,57.0,48,0.00,,,0.02,WUHU21623XXSP,2013-03-25 01:35:00,
2013-03-24 21:40:00,29.7,12.1,29.36,NE,45,4.1,57.0,48,0.00,,,0.02,WUHU21623XXSP,2013-03-25 01:40:00,
2013-03-24 21:45:00,29.7,12.1,29.36,NNW,337,3.4,57.0,48,0.00,,,0.02,WUHU21623XXSP,2013-03-25 01:45:00,
2013-03-24 21:50:00,29.7,12.1,29.36,NW,315,4.7,57.0,48,0.00,,,0.02,WUHU21623XXSP,2013-03-25 01:50:00,
2013-03-24 21:55:00,29.7,12.1,29.36,North,8,10.9,57.0,48,0.00,,,0.02,WUHU21623XXSP,2013-03-25 01:55:00,
2013-03-24 22:00:00,29.7,12.1,29.36,NNW,337,2.9,57.0,48,0.00,,,0.02,WUHU21623XXSP,2013-03-25 02:00:00,
2013-03-24 22:05:00,29.5,11.9,29.36,North,0,6.6,57.0,48,0.00,,,0.02,WUHU21623XXSP,2013-03-25 02:05:00,
2013-03-24 22:10:00,29.5,11.9,29.36,ENE,66,2.0,57.0,48,0.00,,,0.02,WUHU21623XXSP,2013-03-25 02:10:00,
2013-03-24 22:15:00,29.5,11.9,29.36,NNE,15,4.2,57.0,48,0.00,,,0.02,WUHU21623XXSP,2013-03-25 02:15:00,
2013-03-24 22:20:00,29.5,11.9,29.35,North,357,12.9,57.0,48,0.00,,,0.02,WUHU21623XXSP,2013-03-25 02:20:00,
2013-03-24 22:26:00,29.5,11.9,29.35,East,90,6.5,57.0,48,0.00,,,0.02,WUHU21623XXSP,2013-03-25 02:26:00,
2013-03-24 22:31:00,29.5,11.9,29.35,North,0,1.6,57.0,48,0.00,,,0.02,WUHU21623XXSP,2013-03-25 02:31:00,
2013-03-24 22:36:00,29.5,11.9,29.35,North,0,3.0,57.0,48,0.00,,,0.02,WUHU21623XXSP,2013-03-25 02:36:00,
2013-03-24 22:41:00,29.5,11.9,29.34,North,0,23.2,57.0,48,0.00,,,0.02,WUHU21623XXSP,2013-03-25 02:41:00,
2013-03-24 22:46:00,29.5,11.9,29.35,NE,39,3.1,57.0,48,0.00,,,0.02,WUHU21623XXSP,2013-03-25 02:46:00,
2013-03-24 22:51:00,29.3,11.7,29.34,North,8,4.3,57.0,48,0.00,,,0.02,WUHU21623XXSP,2013-03-25 02:51:00,
2013-03-24 22:56:00,29.5,11.9,29.34,NNW,345,4.2,57.0,48,0.00,,,0.02,WUHU21623XXSP,2013-03-25 02:56:00,
2013-03-24 23:01:00,29.5,11.9,29.34,NNW,345,4.5,57.0,48,0.00,,,0.02,WUHU21623XXSP,2013-03-25 03:01:00,
2013-03-24 23:06:00,29.5,11.9,29.34,North,352,2.0,57.0,48,0.00,,,0.02,WUHU21623XXSP,2013-03-25 03:06:00,
2013-03-24 23:11:00,29.5,11.9,29.33,North,5,4.1,57.0,48,0.00,,,0.02,WUHU21623XXSP,2013-03-25 03:11:00,
2013-03-24 23:16:00,29.5,11.9,29.33,North,355,13.3,57.0,48,0.00,,,0.02,WUHU21623XXSP,2013-03-25 03:16:00,
2013-03-24 23:21:00,29.5,11.9,29.33,North,0,57.0,57.0,48,0.00,,,0.02,WUHU21623XXSP,2013-03-25 03:21:00,
2013-03-24 23:26:00,29.7,12.1,29.33,North,0,57.0,57.0,48,0.00,,,0.02,WUHU21623XXSP,2013-03-25 03:26:00,
2013-03-24 23:31:00,29.5,11.9,29.33,North,0,57.0,57.0,48,0.00,,,0.02,WUHU21623XXSP,2013-03-25 03:31:00,
2013-03-24 23:36:00,29.7,12.1,29.33,NE,45,5.1,57.0,48,0.00,,,0.02,WUHU21623XXSP,2013-03-25 03:36:00,
2013-03-24 23:42:00,29.7,12.1,29.33,North,8,16.9,57.0,48,0.00,,,0.02,WUHU21623XXSP,2013-03-25 03:42:00,
2013-03-24 23:47:00,29.7,12.1,29.33,NNW,342,4.9,57.0,48,0.00,,,0.02,WUHU21623XXSP,2013-03-25 03:47:00,
2013-03-24 23:52:00,29.7,12.1,29.33,WNW,303,1.8,57.0,48,0.00,,,0.02,WUHU21623XXSP,2013-03-25 03:52:00,
2013-03-24 23:57:00,29.7,12.1,29.33,North,0,57.0,57.0,48,0.00,,,0.02,WUHU21623XXSP,2013-03-25 03:57:00,